�������l�o���
Date,Time,MP-1(��Sv/h),MP-2(��Sv/h),MP-3(��Sv/h),MP-4(��Sv/h),MP-5(��Sv/h),MP-6(��Sv/h),MP-7(��Sv/h),����,����(m/s),���J
2024/04/04,00:00,0.154,0.136,0.212,0.199,0.212,0.124,0.086,�k�k��,4.6,�L
2024/04/04,00:10,0.155,0.136,0.212,0.200,0.210,0.124,0.087,�k�k��,4.8,�L
2024/04/04,00:20,0.153,0.135,0.212,0.199,0.212,0.124,0.087,�k�k��,4.8,�L
2024/04/04,00:30,0.154,0.136,0.212,0.199,0.212,0.124,0.086,�k�k��,4.9,�L
2024/04/04,00:40,0.154,0.135,0.211,0.199,0.211,0.123,0.087,�k�k��,4.6,�L
2024/04/04,00:50,0.154,0.135,0.212,0.199,0.211,0.124,0.087,�k�k��,5.5,�L
2024/04/04,01:00,0.154,0.137,0.211,0.200,0.212,0.125,0.087,-,CALM,�L
2024/04/04,01:10,0.155,0.136,0.211,0.199,0.211,0.125,0.086,�k�k��,5.1,�L
2024/04/04,01:20,0.154,0.136,0.212,0.199,0.212,0.124,0.086,�k�k��,5.7,�L
2024/04/04,01:30,0.152,0.135,0.210,0.197,0.211,0.124,0.085,�k�k��,6.2,�L
2024/04/04,01:40,0.153,0.135,0.210,0.198,0.209,0.124,0.085,�k��,6.0,�L
2024/04/04,01:50,0.153,0.134,0.211,0.197,0.211,0.122,0.085,�k�k��,5.5,�L
2024/04/04,02:00,0.152,0.134,0.211,0.197,0.211,0.123,0.085,�k�k��,6.0,�L
2024/04/04,02:10,0.152,0.134,0.209,0.197,0.211,0.122,0.085,�k�k��,6.3,�L
2024/04/04,02:20,0.151,0.135,0.210,0.198,0.210,0.123,0.085,�k�k��,6.4,�L
2024/04/04,02:30,0.151,0.134,0.210,0.197,0.209,0.122,0.083,�k�k��,7.2,�L
2024/04/04,02:40,0.151,0.133,0.209,0.197,0.208,0.121,0.084,�k�k��,6.5,�L
2024/04/04,02:50,0.150,0.133,0.209,0.195,0.207,0.122,0.083,�k��,6.9,�L
2024/04/04,03:00,0.150,0.132,0.208,0.194,0.207,0.120,0.082,�k�k��,7.4,�L
2024/04/04,03:10,0.149,0.131,0.208,0.194,0.209,0.120,0.082,�k�k��,7.0,�L
2024/04/04,03:20,0.149,0.131,0.207,0.194,0.207,0.120,0.081,�k��,7.9,�L
2024/04/04,03:30,0.148,0.130,0.206,0.193,0.206,0.119,0.080,�k�k��,8.9,�L
2024/04/04,03:40,0.148,0.128,0.206,0.192,0.206,0.117,0.079,�k�k��,8.6,�L
2024/04/04,03:50,0.146,0.129,0.205,0.191,0.206,0.117,0.078,�k�k��,8.9,��
2024/04/04,04:00,0.145,0.127,0.202,0.190,0.204,0.115,0.077,�k�k��,8.3,��
2024/04/04,04:10,0.144,0.126,0.203,0.190,0.204,0.116,0.077,�k��,7.1,��
2024/04/04,04:20,0.144,0.125,0.202,0.188,0.202,0.115,0.076,�k�k��,8.6,��
2024/04/04,04:30,0.143,0.125,0.202,0.188,0.203,0.113,0.076,�k��,7.9,��
2024/04/04,04:40,0.142,0.124,0.202,0.188,0.202,0.113,0.075,�k��,8.2,��
2024/04/04,04:50,0.142,0.125,0.201,0.187,0.201,0.112,0.076,�k�k��,8.2,��
2024/04/04,05:00,0.142,0.125,0.200,0.187,0.202,0.112,0.075,�k�k��,8.2,��
2024/04/04,05:10,0.142,0.124,0.201,0.188,0.201,0.111,0.074,�k��,8.1,��
2024/04/04,05:20,0.141,0.124,0.200,0.187,0.202,0.113,0.074,�k��,7.6,��
2024/04/04,05:30,0.142,0.123,0.201,0.187,0.202,0.112,0.074,�k��,7.2,��
2024/04/04,05:40,0.141,0.124,0.201,0.188,0.201,0.112,0.074,�k��,7.6,��
2024/04/04,05:50,0.142,0.124,0.200,0.188,0.202,0.112,0.074,�k��,7.5,��
2024/04/04,06:00,0.141,0.124,0.200,0.187,0.200,0.112,0.074,�k��,7.2,��
2024/04/04,06:10,0.142,0.124,0.199,0.188,0.201,0.111,0.074,�k��,7.2,��
2024/04/04,06:20,0.142,0.123,0.201,0.186,0.201,0.111,0.074,�k�k��,6.0,��
2024/04/04,06:30,0.141,0.123,0.199,0.187,0.200,0.112,0.073,�k��,6.6,��
2024/04/04,06:40,0.141,0.124,0.200,0.186,0.202,0.111,0.074,�k��,7.4,��
2024/04/04,06:50,0.141,0.124,0.200,0.187,0.200,0.111,0.074,�k��,7.5,��
2024/04/04,07:00,0.141,0.125,0.200,0.187,0.201,0.112,0.074,�k��,7.1,��
2024/04/04,07:10,0.142,0.123,0.200,0.186,0.201,0.111,0.073,�k�k��,6.5,��
2024/04/04,07:20,0.141,0.123,0.201,0.186,0.200,0.111,0.073,�k�k��,6.4,��
2024/04/04,07:30,0.141,0.123,0.200,0.186,0.202,0.112,0.073,�k�k��,6.3,��
2024/04/04,07:40,0.141,0.122,0.201,0.185,0.200,0.111,0.074,�k��,7.0,��
2024/04/04,07:50,0.142,0.123,0.199,0.186,0.202,0.111,0.073,�k�k��,6.6,��
2024/04/04,08:00,0.142,0.123,0.200,0.186,0.199,0.111,0.074,�k�k��,6.1,��
2024/04/04,08:10,0.141,0.123,0.201,0.187,0.201,0.111,0.074,�k��,6.3,��
2024/04/04,08:20,0.142,0.123,0.200,0.186,0.201,0.112,0.074,�k�k��,4.9,��
2024/04/04,08:30,0.141,0.123,0.201,0.187,0.201,0.112,0.074,�k�k��,5.3,��
2024/04/04,08:40,0.142,0.123,0.199,0.185,0.199,0.112,0.074,�k�k��,4.9,��
2024/04/04,08:50,0.141,0.123,0.198,0.187,0.202,0.112,0.074,�k,4.5,��
2024/04/04,09:00,0.141,0.123,0.201,0.186,0.200,0.111,0.073,�k,4.3,��
2024/04/04,09:10,0.141,0.123,0.199,0.185,0.201,0.111,0.073,�k,5.2,��
2024/04/04,09:20,0.141,0.123,0.201,0.187,0.200,0.111,0.074,�k,5.4,��
2024/04/04,09:30,0.142,0.123,0.199,0.186,0.202,0.112,0.074,�k,5.6,��
2024/04/04,09:40,0.141,0.123,0.201,0.187,0.200,0.111,0.074,�k,5.8,��
2024/04/04,09:50,0.142,0.124,0.199,0.186,0.201,0.112,0.074,�k,4.4,��
2024/04/04,10:00,0.142,0.123,0.200,0.187,0.201,0.112,0.073,�k�k��,4.3,��
2024/04/04,10:10,0.142,0.123,0.201,0.187,0.201,0.111,0.073,�k,3.8,��
2024/04/04,10:20,0.141,0.125,0.200,0.186,0.202,0.112,0.074,�k�k��,5.4,��
2024/04/04,10:30,0.142,0.122,0.199,0.186,0.200,0.110,0.074,�k�k��,5.1,��
2024/04/04,10:40,0.142,0.123,0.201,0.187,0.200,0.111,0.074,�k�k��,4.2,��
2024/04/04,10:50,0.142,0.123,0.201,0.187,0.202,0.112,0.073,�k,4.8,��
2024/04/04,11:00,0.142,0.123,0.199,0.187,0.201,0.111,0.074,�k,4.9,��
2024/04/04,11:10,0.141,0.123,0.201,0.188,0.203,0.112,0.073,�k,5.5,��
2024/04/04,11:20,0.143,0.123,0.201,0.186,0.201,0.112,0.074,�k,5.0,��
2024/04/04,11:30,0.141,0.123,0.199,0.188,0.203,0.113,0.073,�k,5.8,��
2024/04/04,11:40,0.141,0.124,0.202,0.188,0.201,0.112,0.074,�k,5.0,��
2024/04/04,11:50,0.143,0.124,0.203,0.186,0.200,0.112,0.074,�k��,4.6,��
2024/04/04,12:00,0.141,0.124,0.200,0.190,0.202,0.112,0.074,�k��,2.8,��
2024/04/04,12:10,0.143,0.123,0.200,0.188,0.201,0.112,0.074,���k��,1.8,��
2024/04/04,12:20,0.143,0.124,0.202,0.187,0.201,0.112,0.073,���k��,2.8,��
2024/04/04,12:30,0.140,0.124,0.200,0.189,0.202,0.112,0.073,�k��,3.4,��
2024/04/04,12:40,0.142,0.124,0.200,0.186,0.201,0.113,0.074,�k��,3.7,��
2024/04/04,12:50,0.142,0.124,0.203,0.187,0.200,0.112,0.074,��,2.5,��
2024/04/04,13:00,0.141,0.125,0.203,0.189,0.202,0.112,0.074,�쓌,2.4,��
2024/04/04,13:10,0.141,0.123,0.200,0.188,0.203,0.113,0.074,�쓌,1.7,��
2024/04/04,13:20,0.142,0.124,0.202,0.187,0.201,0.112,0.074,���쓌,2.0,��
2024/04/04,13:30,0.141,0.123,0.204,0.189,0.201,0.112,0.074,��쓌,1.4,��
2024/04/04,13:40,0.142,0.124,0.201,0.188,0.203,0.112,0.074,���쓌,1.4,��
2024/04/04,13:50,0.143,0.125,0.203,0.188,0.201,0.112,0.074,�쓌,0.8,��
2024/04/04,14:00,0.142,0.124,0.203,0.189,0.201,0.113,0.074,��,0.9,��
2024/04/04,14:10,0.142,0.125,0.202,0.188,0.203,0.112,0.074,���쓌,1.0,��
2024/04/04,14:20,0.144,0.124,0.203,0.188,0.201,0.113,0.073,��,1.4,��
2024/04/04,14:30,0.143,0.124,0.201,0.190,0.202,0.113,0.074,��,1.2,��
2024/04/04,14:40,0.141,0.124,0.202,0.188,0.203,0.113,0.074,�k�k��,1.3,��
2024/04/04,14:50,0.144,0.125,0.203,0.189,0.202,0.114,0.074,�k��,1.0,��
2024/04/04,15:00,0.142,0.124,0.202,0.188,0.205,0.113,0.074,-,CALM,��
2024/04/04,15:10,0.143,0.125,0.204,0.190,0.203,0.113,0.075,-,CALM,��
2024/04/04,15:20,0.142,0.124,0.202,0.189,0.203,0.114,0.075,-,CALM,��
2024/04/04,15:30,0.142,0.125,0.204,0.188,0.202,0.112,0.074,-,CALM,��
2024/04/04,15:40,0.143,0.125,0.202,0.190,0.201,0.113,0.074,���쓌,1.0,��
2024/04/04,15:50,0.141,0.124,0.204,0.189,0.204,0.113,0.074,���k��,1.0,��
2024/04/04,16:00,0.143,0.125,0.203,0.190,0.202,0.113,0.074,���쓌,1.0,��
2024/04/04,16:10,0.143,0.125,0.203,0.188,0.201,0.112,0.073,���쓌,0.6,��
2024/04/04,16:20,0.143,0.124,0.204,0.190,0.204,0.112,0.074,��,0.9,��
2024/04/04,16:30,0.143,0.124,0.203,0.189,0.201,0.114,0.074,�쐼,1.1,��
2024/04/04,16:40,0.143,0.125,0.204,0.190,0.201,0.113,0.074,��,3.0,��
2024/04/04,16:50,0.143,0.125,0.203,0.191,0.202,0.114,0.074,���k��,4.6,��
2024/04/04,17:00,0.142,0.124,0.204,0.189,0.200,0.113,0.074,���k��,5.7,��
2024/04/04,17:10,0.143,0.124,0.202,0.189,0.204,0.113,0.074,���k��,4.7,��
2024/04/04,17:20,0.143,0.124,0.204,0.190,0.202,0.113,0.074,���k��,4.8,��
2024/04/04,17:30,0.144,0.125,0.203,0.191,0.204,0.114,0.074,���k��,6.7,��
2024/04/04,17:40,0.143,0.124,0.204,0.190,0.204,0.113,0.074,���k��,6.6,��
2024/04/04,17:50,0.144,0.125,0.203,0.190,0.204,0.114,0.075,���k��,4.6,��
2024/04/04,18:00,0.142,0.124,0.203,0.190,0.202,0.113,0.074,���k��,4.1,��
2024/04/04,18:10,0.143,0.124,0.203,0.190,0.205,0.113,0.074,���k��,3.6,��
2024/04/04,18:20,0.143,0.124,0.204,0.190,0.202,0.113,0.074,���k��,4.8,��
2024/04/04,18:30,0.143,0.124,0.205,0.190,0.205,0.114,0.075,���k��,4.3,��
2024/04/04,18:40,0.144,0.125,0.204,0.190,0.203,0.114,0.074,���k��,3.5,��
2024/04/04,18:50,0.143,0.125,0.203,0.191,0.202,0.113,0.074,���k��,5.1,��
2024/04/04,19:00,0.144,0.124,0.204,0.190,0.205,0.113,0.074,���k��,6.3,��
2024/04/04,19:10,0.143,0.125,0.204,0.190,0.203,0.113,0.074,���k��,5.7,��
2024/04/04,19:20,0.143,0.124,0.203,0.189,0.204,0.113,0.074,�k��,5.9,��
2024/04/04,19:30,0.143,0.126,0.204,0.190,0.203,0.114,0.074,�k��,6.8,��
2024/04/04,19:40,0.144,0.124,0.204,0.190,0.203,0.113,0.074,�k��,7.4,��
2024/04/04,19:50,0.144,0.125,0.203,0.189,0.201,0.114,0.074,�k��,6.5,��
2024/04/04,20:00,0.143,0.124,0.204,0.190,0.203,0.113,0.074,�k��,6.2,��
2024/04/04,20:10,0.143,0.124,0.203,0.191,0.202,0.113,0.074,�k�k��,4.8,��
2024/04/04,20:20,0.143,0.125,0.204,0.189,0.203,0.113,0.074,�k��,5.6,��
2024/04/04,20:30,0.143,0.125,0.203,0.191,0.204,0.113,0.074,�k��,6.3,��
2024/04/04,20:40,0.144,0.125,0.203,0.191,0.202,0.113,0.074,�k�k��,6.8,��
2024/04/04,20:50,0.143,0.125,0.202,0.190,0.203,0.113,0.074,�k��,5.5,��
2024/04/04,21:00,0.143,0.125,0.204,0.191,0.203,0.114,0.075,�k�k��,3.8,��
2024/04/04,21:10,0.143,0.125,0.204,0.189,0.204,0.113,0.074,�k�k��,4.8,��
2024/04/04,21:20,0.143,0.125,0.204,0.191,0.203,0.114,0.074,�k��,5.3,��
2024/04/04,21:30,0.143,0.125,0.203,0.191,0.203,0.114,0.075,�k��,6.4,��
2024/04/04,21:40,0.143,0.125,0.203,0.190,0.204,0.112,0.074,�k��,6.8,��
2024/04/04,21:50,0.144,0.125,0.204,0.191,0.203,0.114,0.075,�k�k��,8.9,��
2024/04/04,22:00,0.144,0.125,0.205,0.190,0.202,0.113,0.075,�k�k��,9.3,��
2024/04/04,22:10,0.145,0.125,0.202,0.190,0.203,0.113,0.074,�k�k��,7.3,��
2024/04/04,22:20,0.144,0.125,0.205,0.190,0.203,0.113,0.074,�k��,7.5,��
2024/04/04,22:30,0.144,0.125,0.204,0.191,0.205,0.114,0.074,�k�k��,5.6,��
2024/04/04,22:40,0.144,0.125,0.205,0.190,0.203,0.113,0.074,�k��,7.2,��
2024/04/04,22:50,0.144,0.125,0.204,0.191,0.202,0.113,0.074,�k��,6.4,��
2024/04/04,23:00,0.143,0.125,0.204,0.190,0.203,0.114,0.074,�k��,6.4,��
2024/04/04,23:10,0.144,0.125,0.204,0.191,0.203,0.113,0.074,�k��,5.7,��
2024/04/04,23:20,0.143,0.126,0.204,0.191,0.203,0.113,0.074,�k��,6.6,��
2024/04/04,23:30,0.144,0.125,0.203,0.190,0.204,0.113,0.074,�k��,9.8,��
2024/04/04,23:40,0.143,0.125,0.205,0.190,0.202,0.114,0.074,�k��,13.4,��
2024/04/04,23:50,0.144,0.125,0.205,0.191,0.202,0.113,0.074,�k��,12.6,��
